This demonstration page uses our WeatherBlox Daily Observations layout. Learn more.

Left ArrowRight Arrow

Hourly Observations for May 26, 2017

Temp ( °F °C ) Dew Point ( °F °C ) Humidity (%) Winds ( mph kmh ) Pressure ( in mb ) Visibility ( mi km ) Precip ( " mm )
12:15 am 00:15 Mostly Clear 63 17 54 12 73 73 N 6 9 29.59 1002 10 16 0.00 0.00
12:35 am 00:35 Clear 64 18 54 12 68 68 NNW 8 13 29.59 1002 10 16 0.00 0.00
12:55 am 00:55 Mostly Cloudy 64 18 54 12 68 68 NW 7 11 29.62 1003 10 16 0.00 0.00
1:15 am 01:15 Cloudy 64 18 54 12 68 68 NW 6 9 29.62 1003 10 16 0.00 0.00
1:35 am 01:35 Cloudy 64 18 54 12 68 68 NNW 9 15 29.62 1003 10 16 0.00 0.00
1:55 am 01:55 Mostly Cloudy 63 17 54 12 73 73 NNW 9 15 29.62 1003 10 16 0.00 0.00
2:15 am 02:15 Mostly Cloudy 63 17 54 12 73 73 NNW 7 11 29.62 1003 10 16 0.00 0.00
2:35 am 02:35 Partly Cloudy 63 17 54 12 73 73 NNW 6 9 29.62 1003 10 16 0.00 0.00
2:55 am 02:55 Clear 63 17 54 12 73 73 NNW 5 7 29.62 1003 10 16 0.00 0.00
3:15 am 03:15 Clear 63 17 52 11 68 68 NNW 6 9 29.62 1003 10 16 0.00 0.00
3:35 am 03:35 Clear 61 16 52 11 72 72 NNW 8 13 29.65 1004 10 16 0.00 0.00
3:55 am 03:55 Clear 61 16 52 11 72 72 NNW 9 15 29.65 1004 10 16 0.00 0.00
4:15 am 04:15 Clear 61 16 52 11 72 72 NW 7 11 29.68 1005 10 16 0.00 0.00
4:35 am 04:35 Clear 61 16 52 11 72 72 NNW 9 15 29.71 1006 10 16 0.00 0.00
4:55 am 04:55 Clear 61 16 52 11 72 72 NNW 9 15 29.71 1006 10 16 0.00 0.00
5:15 am 05:15 Clear 61 16 52 11 72 72 NNW 17 28 29.74 1007 10 16 0.00 0.00
5:35 am 05:35 Clear 61 16 50 10 68 68 NNW 17 28 29.74 1007 10 16 0.00 0.00
5:55 am 05:55 Clear 59 15 46 8 63 63 NNW 21 33 29.74 1007 10 16 0.00 0.00
6:15 am 06:15 Sunny 57 14 43 6 59 59 N 20 31 29.77 1008 10 16 0.00 0.00
6:35 am 06:35 Sunny 55 13 45 7 67 67 N 16 26 29.80 1009 10 16 0.00 0.00
6:55 am 06:55 Sunny 55 13 43 6 63 63 N 17 28 29.80 1009 10 16 0.00 0.00
7:15 am 07:15 Sunny 55 13 43 6 63 63 N 16 26 29.83 1010 10 16 0.00 0.00
7:35 am 07:35 Sunny 57 14 43 6 59 59 N 15 24 29.83 1010 10 16 0.00 0.00
7:55 am 07:55 Sunny 57 14 43 6 59 59 N 18 30 29.83 1010 10 16 0.00 0.00
8:15 am 08:15 Sunny 59 15 43 6 55 55 N 22 35 29.83 1010 10 16 0.00 0.00
8:35 am 08:35 Sunny 61 16 43 6 52 52 N 21 33 29.83 1010 10 16 0.00 0.00
8:55 am 08:55 Mostly Cloudy 61 16 43 6 52 52 N 18 30 29.83 1010 10 16 0.00 0.00
9:15 am 09:15 Mostly Cloudy 63 17 43 6 49 49 N 20 31 29.83 1010 10 16 0.00 0.00
9:35 am 09:35 Mostly Cloudy 63 17 43 6 49 49 N 17 28 29.83 1010 10 16 0.00 0.00
9:55 am 09:55 Mostly Sunny 63 17 43 6 49 49 N 20 31 29.83 1010 10 16 0.00 0.00
10:15 am 10:15 Sunny 63 17 43 6 49 49 N 16 26 29.83 1010 10 16 0.00 0.00
10:35 am 10:35 Sunny 64 18 45 7 49 49 N 15 24 29.83 1010 10 16 0.00 0.00
10:55 am 10:55 Mostly Sunny 64 18 45 7 49 49 N 14 22 29.83 1010 10 16 0.00 0.00
11:15 am 11:15 Mostly Cloudy 66 19 46 8 49 49 N 13 20 29.80 1009 10 16 0.00 0.00
11:35 am 11:35 Mostly Cloudy 68 20 45 7 43 43 N 17 28 29.80 1009 10 16 0.00 0.00
11:55 am 11:55 Mostly Cloudy 66 19 46 8 49 49 NNE 16 26 29.80 1009 10 16 0.00 0.00
12:15 pm 12:15 Mostly Cloudy 70 21 45 7 40 40 N 14 22 29.83 1010 10 16 0.00 0.00
12:35 pm 12:35 Mostly Cloudy 70 21 46 8 43 43 N 10 17 29.83 1010 10 16 0.00 0.00
12:55 pm 12:55 Partly Cloudy 70 21 45 7 40 40 NNE 13 20 29.83 1010 10 16 0.00 0.00
1:15 pm 13:15 Sunny 72 22 46 8 41 41 NNE 9 15 29.83 1010 10 16 0.00 0.00
1:35 pm 13:35 Mostly Sunny 72 22 46 8 41 41 NNE 10 17 29.80 1009 10 16 0.00 0.00
1:55 pm 13:55 Sunny 72 22 46 8 41 41 NNE 9 15 29.80 1009 10 16 0.00 0.00
2:15 pm 14:15 Sunny 73 23 46 8 38 38 N 14 22 29.77 1008 10 16 0.00 0.00
2:35 pm 14:35 Sunny 73 23 46 8 38 38 NE 7 11 29.77 1008 10 16 0.00 0.00
2:55 pm 14:55 Sunny 73 23 46 8 38 38 NNW 7 11 29.77 1008 10 16 0.00 0.00
3:15 pm 15:15 Sunny 73 23 46 8 38 38 N 7 11 29.77 1008 10 16 0.00 0.00
3:35 pm 15:35 Sunny 73 23 46 8 38 38 NNE 3 6 29.77 1008 10 16 0.00 0.00
3:55 pm 15:55 Sunny 75 24 46 8 36 36 NNE 5 7 29.77 1008 10 16 0.00 0.00
4:15 pm 16:15 Sunny 75 24 48 9 39 39 Calm 29.77 1008 10 16 0.00 0.00
4:35 pm 16:35 Sunny 75 24 48 9 39 39 NE 6 9 29.77 1008 10 16 0.00 0.00
4:55 pm 16:55 Sunny 75 24 46 8 36 36 Calm 29.77 1008 10 16 0.00 0.00
5:15 pm 17:15 Sunny 75 24 46 8 36 36 Calm 29.77 1008 10 16 0.00 0.00
5:35 pm 17:35 Sunny 75 24 48 9 39 39 NNE 5 7 29.77 1008 10 16 0.00 0.00
5:55 pm 17:55 Sunny 75 24 46 8 36 36 NNW 5 7 29.77 1008 10 16 0.00 0.00
6:15 pm 18:15 Sunny 75 24 46 8 36 36 NNE 6 9 29.77 1008 10 16 0.00 0.00
6:35 pm 18:35 Sunny 75 24 46 8 36 36 ESE 5 7 29.77 1008 10 16 0.00 0.00
6:55 pm 18:55 Sunny 75 24 46 8 36 36 ESE 8 13 29.77 1008 10 16 0.00 0.00
7:15 pm 19:15 Sunny 75 24 48 9 39 39 ESE 5 7 29.77 1008 10 16 0.00 0.00
7:35 pm 19:35 Sunny 73 23 48 9 41 41 ESE 5 7 29.77 1008 10 16 0.00 0.00
7:55 pm 19:55 Sunny 72 22 46 8 41 41 ESE 6 9 29.80 1009 10 16 0.00 0.00
8:15 pm 20:15 Sunny 72 22 48 9 44 44 E 7 11 29.80 1009 10 16 0.00 0.00
8:35 pm 20:35 Sunny 70 21 48 9 46 46 E 6 9 29.80 1009 10 16 0.00 0.00
8:55 pm 20:55 Sunny 66 19 48 9 52 52 E 8 13 29.80 1009 10 16 0.00 0.00
9:15 pm 21:15 Clear 64 18 48 9 56 56 NE 5 7 29.83 1010 10 16 0.00 0.00
9:35 pm 21:35 Clear 63 17 48 9 59 59 NNE 7 11 29.83 1010 10 16 0.00 0.00
9:55 pm 21:55 Clear 63 17 48 9 59 59 NNE 8 13 29.83 1010 10 16 0.00 0.00
10:15 pm 22:15 Clear 63 17 48 9 59 59 NNE 7 11 29.85 1011 10 16 0.00 0.00
10:35 pm 22:35 Clear 63 17 46 8 56 56 NNE 6 9 29.85 1011 10 16 0.00 0.00
10:55 pm 22:55 Clear 63 17 48 9 59 59 NNE 5 7 29.85 1011 10 16 0.00 0.00
11:15 pm 23:15 Mostly Clear 63 17 48 9 59 59 NNE 5 7 29.85 1011 10 16 0.00 0.00
11:35 pm 23:35 Mostly Cloudy 63 17 48 9 59 59 NE 5 7 29.85 1011 10 16 0.00 0.00
11:55 pm 23:55 Mostly Clear 61 16 48 9 63 63 ENE 7 11 29.85 1011 10 16 0.00 0.00

Powered by AerisWeather